DMSP 5D-2 F13 DEB, 42258

Orbit data source: Space-Track

DMSP 5D-2 F13 DEB, 42258 is space debris in SSO originally from a launch on Fri, 24 Mar 1995 UTC launched from the Air Force Western Test Range (AFWTR). Debris objects in space refer to the collection of defunct objects orbiting the Earth. Examples of debris include non-operational satellites, rocket bodies, and fragments generated from explosions, collisions, or faulty payload assembly.

Loading next visibility...
Identifier
42258, 1995-015FY
Orbit
SSO
Country
Flag of USUS
Related business
Manufacturer
Unknown
Mission
Spacecraft
Bus & Motor
Unknown
Mass
Unknown
Launch date (UTC)
1995-03-24 (31 years ago)
Launch vehicle
Unknown
Launch site
Air Force Western Test Range (AFWTR)
Object type
Payload
Rocket body
Debris
Shape & HBR
Unknown shape, 0.1 m
Radar Cross Section
Medium (>0.1 m² and <1 m²)

Expand to show TLE details & history
Last TLE update: 3 days ago

TLE from 3 days ago
0 DMSP 5D-2 F13 DEB
1 42258U 95015FY  26251.23812191  .00003930  00000-0  22760-2 0  9998
2 42258  98.7357  55.6186 0127304 181.9145 178.1553 14.05415098559151
Epoch: 2026-09-08T05:42Z
TLE epoch observation values (Epoch: 2026-09-08T05:42:53.733Z)
Latitude
0.00005°
Longitude
-17.4127°
Altitude
970.306 km
Speed
7.32 km/s
True Right ascension
03h 42m 28s
True Declination
0° 00' 00"
Sunlit
Object was in daylight at epoch
Visualization orbit readout
Latitude
Unknown
Longitude
Unknown
Altitude
Unknown
Speed
Unknown
Apparent Right ascension
Unknown
Apparent Declination
Unknown
Sunlit
N/A
Visualization observer readout
Local Sidereal Time
21:34:29
Azimuth
Unknown
Elevation
Unknown
Doppler factor
Unknown
Orbital elements
Apogee altitude
964.583 km
Perigee altitude
779.982 km
Semi-major axis
7,250.42 km
Eccentricity
0.01273
Inclination
98.7357°
RAAN
55.6186°
Arg. of periapsis
181.9145°
True anomaly
178.20152°
Mean anomaly
178.1553°
Eccentric anomaly
178.17848°
Mean motion
3.51559 °/min
Orbital period
102.4 mins
BSTAR
0.002276
Loading maneuver chart data...
Computing Atmospheric mass density...

Documentation

Showing up to 5 results
|